Flag for Germany Weather past 2 weeks in Königs Wusterhausen, Brandenburg, Germany

Now
39 °F

Passing clouds.


Feels Like: 28 °F
Forecast: 34 / 42 °F
Wind: 24 mph from West

Location: Berlin-Schoenefeld

Current Time: Apr 1, 2015 at 4:13:46 AM

Latest Report: Apr 1, 2015 at 3:20 AM


Visibility: N/A

Pressure: 29.50 "Hg

Humidity: 81%

Dew point: 34 °F

Location of Königs WusterhausenLocation

Historic Weather in Königs Wusterhausen — Graph

°F

Königs Wusterhausen temperature yesterday

Maximum temperature yesterday: 52 °F (at 12:50 PM)
Minimum temperature yesterday: 32 °F (at 8:20 AM)
Average temperature yesterday: 43 °F

Past Weeks' High & Low Weather Summary

 TemperatureHumidityPressure
High63 °F (Mar 17, 2:20 PM)100% (Mar 21, 5:50 AM)30.42 "Hg (Mar 21, 5:50 AM)
Low27 °F (Mar 20, 4:20 AM)18% (Mar 18, 2:20 PM)29.06 "Hg (Mar 29, 11:50 PM)
Average44 °F70%29.92 "Hg
* Reported Mar 17 1:20 AM — Apr 1 2:50 AM, Königs Wusterhausen, Weather by CustomWeather, © 2015

Note: Actual official high and low records may vary slightly from our data, if they occured in-between our weather recording intervals... More about our weather records

Advertising

Königs Wusterhausen weather history for previous 24 hours

 ConditionsComfort  
Time TempWeatherWind HumidityBarometerVisibility
2:50 AM
Wed, Apr 1
39 °FPassing clouds.25 mph81%29.47 "HgN/A
2:20 AM39 °FPassing clouds.25 mph81%29.47 "HgN/A
1:50 AM39 °FPassing clouds.25 mph81%29.47 "HgN/A
1:20 AM39 °FPassing clouds.28 mph81%29.45 "HgN/A
12:50 AM39 °FPassing clouds.32 mph75%29.45 "HgN/A
12:20 AM41 °FPassing clouds.36 mph70%29.42 "HgN/A
11:50 PM
Tue, Mar 31
43 °FPassing clouds.35 mph61%29.42 "HgN/A
11:20 PM43 °FPassing clouds.31 mph61%29.42 "HgN/A
10:50 PM45 °FPassing clouds.33 mph57%29.36 "HgN/A
10:20 PM45 °FPassing clouds.36 mph57%29.36 "HgN/A
9:50 PM45 °FPassing clouds.41 mph57%29.36 "HgN/A
9:20 PM43 °FPassing clouds.36 mph71%29.36 "HgN/A
8:50 PM45 °FPassing clouds.38 mph61%29.33 "HgN/A
8:20 PM45 °FBroken clouds.47 mph61%29.30 "HgN/A
7:50 PM45 °FBroken clouds.47 mph66%29.27 "HgN/A
7:20 PM46 °FPartly sunny.45 mph66%29.24 "HgN/A
6:50 PM45 °FPartly sunny.43 mph76%29.21 "HgN/A
6:20 PM46 °FSprinkles. Partly sunny.43 mph71%29.18 "HgN/A
5:50 PM46 °FSprinkles. Partly sunny.45 mph71%29.18 "HgN/A
5:20 PM46 °FSprinkles. Broken clouds.37 mph76%29.18 "HgN/A
4:50 PM50 °FBroken clouds.37 mph62%29.12 "HgN/A
4:20 PM50 °FScattered clouds.40 mph62%29.12 "HgN/A
3:50 PM52 °FPartly sunny.37 mph54%29.12 "HgN/A
3:20 PM52 °FScattered clouds.36 mph62%29.09 "HgN/A
2:50 PM52 °FPartly sunny.36 mph62%29.09 "HgN/A
2:20 PM50 °FBroken clouds.37 mph71%29.09 "HgN/A
1:50 PM50 °FPartly sunny.33 mph82%29.09 "HgN/A
1:20 PM52 °FPartly sunny.28 mph72%29.09 "HgN/A
12:50 PM52 °FScattered clouds.30 mph77%29.06 "HgN/A
12:20 PM48 °FPartly sunny.24 mph87%29.06 "HgN/A
11:50 AM48 °FPartly sunny.23 mph87%29.06 "HgN/A
11:20 AM46 °FPartly sunny.21 mph93%29.06 "HgN/A
10:50 AM43 °FPartly sunny.18 mph93%29.06 "HgN/A
10:20 AM39 °FLight rain. Partly sunny.15 mph100%29.06 "HgN/A
9:50 AM36 °FLight rain. Broken clouds.16 mph100%29.09 "Hg6 mi
9:20 AM34 °FLight rain. Broken clouds.17 mph100%29.09 "HgN/A
8:50 AM34 °FLight snow. Partly sunny.16 mph100%29.12 "Hg5 mi
8:20 AM32 °FSnow. Ice fog.18 mph100%29.18 "Hg2 mi
7:50 AM34 °FSnow. Fog.16 mph100%29.21 "Hg1 mi
7:20 AM34 °FSnow. Fog.15 mph100%29.27 "Hg2 mi
6:50 AM36 °FLight rain. Fog.17 mph93%29.33 "Hg3 mi
6:20 AM36 °FLight rain. Partly cloudy.16 mph93%29.39 "HgN/A
5:50 AM39 °FLight rain. Overcast.14 mph75%29.42 "HgN/A
5:20 AM37 °FClear.12 mph81%29.45 "Hg10 mi
4:50 AM37 °FClear.13 mph81%29.47 "Hg10 mi
4:20 AM37 °FClear.13 mph81%29.50 "Hg10 mi
Weather by CustomWeather, © 2015

See weather overviewHow to use our weather pages